Date String (YYYY-MM-DD hh:mm:ss) UTC,Instrument flags,Ambient pressure (hPa),Sample flow (lpm),Bypass flow (lpm),Sample temperature (°C),Ambient temperature (°C),ASC tube jacket temperature (°C),LED temperature (°C),Box temperature (°C),Sample RH (%),Span deviation,Mass concentration (μg/m³),Mass concentration (μg/m³),Mass concentration (μg/m³)
DateTimeUTC,F1_M11,P_M11,Q1_M11,Q2_M11,T1_M11,T2_M11,T3_M11,T4_M11,T5_M11,U1_M11,ZSPAN_M11,X0_M11,X2_M11,X1_M11
2021-09-17 15:00:00,,0836.0,5.00,0.00,29.9,29.1,00.0,39.0,31.6,16.5,0000.0,0011.26,0004.30,0003.52
2021-09-17 15:01:00,,0836.0,5.01,0.00,29.9,29.1,00.0,39.0,31.6,16.4,0000.0,0011.46,0004.37,0003.52
2021-09-17 15:02:00,,0836.0,5.00,0.00,29.9,29.1,00.0,39.0,31.6,16.5,0000.0,0012.06,0004.41,0003.51
2021-09-17 15:03:00,,0836.0,5.00,0.00,29.9,29.1,00.0,39.0,31.6,16.5,0000.0,0012.34,0004.42,0003.50
2021-09-17 15:04:00,,0836.0,5.00,0.00,29.9,29.1,00.0,39.0,31.6,16.5,0000.0,0012.32,0004.40,0003.50
2021-09-17 15:05:00,,0836.0,5.00,0.00,29.9,29.0,00.0,39.0,31.6,16.5,0000.0,0012.13,0004.43,0003.50
2021-09-17 15:06:00,,0836.0,5.01,0.00,29.9,29.0,00.0,39.0,31.6,16.6,0000.0,0011.13,0004.43,0003.51
2021-09-17 15:07:00,,0836.1,5.02,0.00,29.8,29.0,00.0,39.0,31.5,16.6,0000.0,0010.85,0004.43,0003.51
2021-09-17 15:08:00,,0836.0,4.99,0.00,29.8,29.0,00.0,39.0,31.5,16.7,0000.0,0010.46,0004.44,0003.51
2021-09-17 15:09:00,,0836.0,5.01,0.00,29.8,29.0,00.0,39.0,31.5,16.6,0000.0,0010.64,0004.47,0003.52
2021-09-17 15:10:00,,0836.1,4.99,0.00,29.8,29.0,00.0,39.0,31.5,16.6,0000.0,0010.61,0004.50,0003.50
2021-09-17 15:11:00,,0836.0,5.00,0.00,29.8,29.0,00.0,39.0,31.5,16.6,0000.0,0010.38,0004.48,0003.51
2021-09-17 15:12:00,,0836.0,5.01,0.00,29.8,29.0,00.0,39.0,31.4,16.6,0000.0,0010.68,0004.47,0003.50
2021-09-17 15:13:00,,0836.0,4.99,0.00,29.7,29.0,00.0,39.0,31.4,16.7,0000.0,0010.08,0004.43,0003.51
2021-09-17 15:14:00,,0836.1,5.01,0.00,29.7,29.0,00.0,38.9,31.4,16.8,0000.0,0009.58,0004.44,0003.52
2021-09-17 15:15:00,,0836.0,5.01,0.00,29.7,28.9,00.0,38.9,31.4,16.7,0000.0,0009.61,0004.47,0003.51
2021-09-17 15:16:00,,0836.0,4.98,0.00,29.7,28.9,00.0,38.9,31.4,16.7,0000.0,0009.62,0004.45,0003.51
2021-09-17 15:17:00,,0836.0,5.02,0.00,29.7,28.9,00.0,38.9,31.4,16.8,0000.0,0009.68,0004.43,0003.51
2021-09-17 15:18:00,,0836.0,5.00,0.00,29.7,28.9,00.0,38.9,31.4,16.7,0000.0,0009.76,0004.40,0003.49
2021-09-17 15:19:00,,0836.0,4.99,0.00,29.7,28.9,00.0,38.9,31.4,16.8,0000.0,0009.29,0004.35,0003.49
2021-09-17 15:20:00,,0836.0,5.01,0.00,29.7,28.9,00.0,38.9,31.4,16.9,0000.0,0009.12,0004.32,0003.49
2021-09-17 15:21:00,,0836.0,5.01,0.00,29.7,28.9,00.0,38.9,31.4,16.9,0000.0,0008.89,0004.29,0003.49
2021-09-17 15:22:00,,0836.0,4.99,0.00,29.7,28.9,00.0,38.9,31.4,16.9,0000.0,0008.82,0004.27,0003.50
2021-09-17 15:23:00,,0836.0,5.00,0.00,29.7,28.9,00.0,38.9,31.4,16.8,0000.0,0008.41,0004.26,0003.51
2021-09-17 15:24:00,,0836.0,5.00,0.00,29.7,28.8,00.0,38.9,31.3,16.8,0000.0,0008.39,0004.26,0003.51
2021-09-17 15:25:00,,0836.0,5.01,0.00,29.6,28.8,00.0,38.9,31.3,16.9,0000.0,0008.59,0004.31,0003.52
2021-09-17 15:26:00,,0836.0,5.01,0.00,29.6,28.8,00.0,38.8,31.3,16.9,0000.0,0009.31,0004.32,0003.54
2021-09-17 15:27:00,,0836.0,4.99,0.00,29.6,28.8,00.0,38.8,31.2,16.9,0000.0,0009.33,0004.33,0003.54
2021-09-17 15:28:00,,0836.0,5.00,0.00,29.6,28.8,00.0,38.8,31.2,16.9,0000.0,0009.20,0004.34,0003.55
2021-09-17 15:29:00,,0836.0,4.99,0.00,29.6,28.8,00.0,38.8,31.2,16.9,0000.0,0009.33,0004.36,0003.56
2021-09-17 15:30:00,,0836.0,4.99,0.00,29.6,28.7,00.0,38.8,31.2,16.9,0000.0,0009.72,0004.39,0003.57
2021-09-17 15:31:00,,0836.1,5.00,0.00,29.6,28.7,00.0,38.8,31.3,17.0,0000.0,0010.02,0004.43,0003.59
2021-09-17 15:32:00,,0836.1,4.99,0.00,29.6,28.7,00.0,38.8,31.3,17.0,0000.0,0010.42,0004.46,0003.59
2021-09-17 15:33:00,,0836.1,4.99,0.00,29.6,28.7,00.0,38.8,31.2,17.0,0000.0,0010.53,0004.48,0003.60
2021-09-17 15:34:00,,0836.1,5.01,0.00,29.5,28.7,00.0,38.7,31.2,17.0,0000.0,0011.03,0004.50,0003.61
2021-09-17 15:35:00,,0836.1,5.00,0.00,29.5,28.7,00.0,38.7,31.2,17.1,0000.0,0011.50,0004.53,0003.62
2021-09-17 15:36:00,,0836.1,5.00,0.00,29.5,28.7,00.0,38.7,31.1,17.0,0000.0,0011.34,0004.51,0003.62
2021-09-17 15:37:00,,0836.0,4.99,0.00,29.5,28.7,00.0,38.7,31.1,17.0,0000.0,0011.38,0004.52,0003.63
2021-09-17 15:38:00,,0836.0,4.99,0.00,29.5,28.7,00.0,38.7,31.1,17.1,0000.0,0011.46,0004.57,0003.65
2021-09-17 15:39:00,,0836.0,5.00,0.00,29.5,28.6,00.0,38.7,31.1,17.1,0000.0,0011.65,0004.60,0003.67
2021-09-17 15:40:00,,0836.0,4.99,0.00,29.5,28.6,00.0,38.7,31.1,17.0,0000.0,0011.80,0004.61,0003.66
2021-09-17 15:41:00,,0836.0,5.00,0.00,29.4,28.6,00.0,38.7,31.1,17.0,0000.0,0011.34,0004.56,0003.65
2021-09-17 15:42:00,,0836.0,5.00,0.00,29.4,28.6,00.0,38.7,31.1,17.1,0000.0,0011.42,0004.56,0003.66
2021-09-17 15:43:00,,0836.1,4.99,0.00,29.4,28.6,00.0,38.7,31.1,17.0,0000.0,0010.76,0004.53,0003.67
2021-09-17 15:44:00,,0836.0,5.00,0.00,29.4,28.6,00.0,38.6,31.1,17.1,0000.0,0010.69,0004.47,0003.67
2021-09-17 15:45:00,,0836.1,5.01,0.00,29.4,28.6,00.0,38.6,31.1,17.2,0000.0,0010.94,0004.51,0003.68
2021-09-17 15:46:00,,0836.0,5.00,0.00,29.4,28.6,00.0,38.6,31.1,17.2,0000.0,0010.35,0004.51,0003.68
2021-09-17 15:47:00,,0836.0,4.99,0.00,29.4,28.6,00.0,38.6,31.1,17.2,0000.0,0010.31,0004.52,0003.69
2021-09-17 15:48:00,,0836.0,5.01,0.00,29.4,28.6,00.0,38.6,31.1,17.1,0000.0,0009.89,0004.52,0003.69
2021-09-17 15:49:00,,0836.1,5.01,0.00,29.4,28.6,00.0,38.6,31.1,17.1,0000.0,0009.54,0004.48,0003.70
2021-09-17 15:50:00,,0836.1,4.99,0.00,29.4,28.6,00.0,38.6,31.1,17.2,0000.0,0009.49,0004.46,0003.70
2021-09-17 15:51:00,,0836.0,5.01,0.00,29.4,28.7,00.0,38.6,31.1,17.2,0000.0,0009.36,0004.50,0003.71
2021-09-17 15:52:00,,0836.1,4.99,0.00,29.4,28.7,00.0,38.6,31.1,17.2,0000.0,0009.35,0004.56,0003.72
2021-09-17 15:53:00,,0836.1,5.01,0.00,29.4,28.6,00.0,38.6,31.1,17.2,0000.0,0009.81,0004.58,0003.72
2021-09-17 15:54:00,,0836.1,4.99,0.00,29.4,28.6,00.0,38.6,31.1,17.2,0000.0,0010.51,0004.58,0003.73
2021-09-17 15:55:00,,0836.0,5.00,0.00,29.4,28.6,00.0,38.6,31.1,17.2,0000.0,0010.73,0004.63,0003.74
2021-09-17 15:56:00,,0836.0,5.01,0.00,29.4,28.6,00.0,38.6,31.1,17.2,0000.0,0011.22,0004.61,0003.75
2021-09-17 15:57:00,,0836.0,5.01,0.00,29.4,28.6,00.0,38.5,31.1,17.2,0000.0,0011.95,0004.66,0003.77
2021-09-17 15:58:00,,0836.0,4.99,0.00,29.4,28.6,00.0,38.5,31.1,17.2,0000.0,0013.19,0004.71,0003.79
2021-09-17 15:59:00,,0836.0,5.00,0.00,29.4,28.6,00.0,38.5,31.1,17.1,0000.0,0013.46,0004.75,0003.81
